Wind_Speed
10 11 11 10 11 11 10 10 11 12 12 10 6 7 10 10 9 8 7 7 8 9 9 9 10 10 11 12 12 12 12 12 12 12 12 12 13 13 12 11 9 8 6 5 4 4 4 3 3 3 3 3 3 6 6 5 4 4 5 5 4 5 8 7 5 5 5 6 7 9 9 9 10 11 13 14 14 13 12 12 11 11 11 12 12
10 11 12 11 12 12 10 11 12 12 13 11 8 9 11 10 9 7 7 8 8 9 9 10 10 10 11 11 11 11 11 11 11 11 12 12 12 11 10 9 8 6 5 4 4 3 3 3 3 3 3 3 4 8 7 6 6 5 5 5 4 4 7 8 5 4 5 6 6 10 11 9 10 12 14 14 13 13 12 12 11 11 11 12 12
12 11 11 12 13 12 11 12 13 13 12 11 10 11 12 10 9 8 8 8 9 10 10 10 10 11 11 11 11 11 11 10 10 11 11 12 11 10 8 7 6 6 5 4 4 4 4 4 4 3 4 4 5 8 8 7 7 7 7 6 5 4 7 9 6 5 5 6 7 10 12 11 11 12 13 13 13 13 13 12 11 11 11 11 11
12 11 12 13 14 13 12 13 14 14 12 12 12 13 13 11 9 9 9 10 10 11 11 11 11 11 12 12 11 11 11 10 10 11 11 11 10 9 8 6 5 5 5 5 5 5 4 5 4 4 5 5 5 6 8 8 8 8 8 8 7 5 6 9 9 7 6 7 8 10 13 14 13 12 12 12 13 13 13 12 12 11 11 11 11
12 12 13 13 13 13 13 13 14 14 12 12 14 14 13 11 11 10 11 11 12 12 12 12 12 12 12 12 12 12 11 10 11 11 11 11 10 8 7 6 5 5 5 6 6 6 5 4 4 4 5 5 5 5 7 7 9 8 8 9 9 6 6 9 11 9 7 8 10 12 14 15 14 13 12 12 13 14 14 13 12 11 11 11 10
12 13 14 13 13 13 14 14 13 13 13 14 15 14 13 12 12 12 12 13 13 13 13 12 13 13 13 12 11 11 11 10 10 10 10 9 8 7 6 5 5 4 5 6 7 7 6 5 4 4 5 6 6 5 6 8 9 9 9 10 10 8 7 9 11 11 9 9 11 13 13 13 13 12 12 13 13 13 13 13 12 11 11 10 10
13 13 14 15 13 14 14 14 14 14 14 15 14 13 12 12 12 12 13 13 13 13 12 12 13 13 12 11 10 10 9 9 9 9 9 7 5 4 4 5 4 3 4 7 8 8 7 5 5 5 6 6 6 6 6 8 10 9 9 10 11 10 8 8 11 12 12 13 14 14 12 12 12 12 12 13 13 13 12 12 11 11 10 10 10
13 14 14 14 14 14 15 15 14 14 14 14 14 13 12 12 12 13 13 13 13 12 11 11 13 13 12 10 10 9 7 8 8 8 8 6 4 3 4 5 5 5 6 8 8 8 8 6 5 6 7 7 7 6 6 8 10 10 10 10 11 11 9 9 11 12 12 15 17 15 13 13 12 13 13 13 13 12 12 11 11 10 10 9 9
14 15 14 14 13 14 15 14 14 14 14 14 13 12 12 12 13 13 13 13 12 11 10 10 12 13 12 10 9 8 7 8 8 8 7 6 5 5 5 7 6 6 8 9 7 7 8 6 5 7 8 9 8 8 7 7 9 10 10 11 12 12 11 10 10 10 10 13 14 13 13 13 14 14 14 13 12 11 11 10 10 10 9 8 8
14 15 14 14 13 13 14 14 13 13 13 13 12 12 12 12 13 13 13 12 12 11 8 8 11 12 11 10 9 8 8 9 9 9 8 7 7 8 8 9 8 7 8 9 9 9 9 8 8 9 10 11 10 9 8 7 9 10 10 12 13 13 12 11 10 10 10 11 12 11 12 13 14 14 14 13 12 11 10 10 10 9 9 8 7
14 15 14 13 12 13 14 13 13 12 12 12 12 12 12 12 13 13 13 12 12 11 9 7 9 12 11 10 9 8 8 10 11 10 9 8 9 10 10 10 9 7 7 9 11 10 9 10 10 12 12 13 12 10 9 9 9 10 12 13 14 14 14 13 11 11 11 11 11 11 12 12 13 13 13 12 11 11 10 10 9 9 8 7 6
14 14 14 13 12 13 14 13 12 12 12 12 12 12 12 12 13 13 12 11 11 12 10 7 9 11 11 10 10 10 10 11 12 11 11 10 11 11 12 11 9 8 9 12 12 11 11 12 13 13 14 14 13 12 11 10 11 12 13 14 15 15 15 13 13 12 12 12 11 11 11 12 11 12 11 11 10 10 9 9 8 8 7 6 5
14 14 14 12 12 13 13 13 12 12 12 12 12 12 11 11 12 13 12 11 11 12 11 8 9 11 11 11 11 11 12 13 13 13 12 11 11 13 14 12 10 11 12 13 13 12 13 14 14 14 14 14 13 12 12 12 13 14 15 16 16 16 15 14 14 13 13 11 11 11 11 10 10 10 11 10 10 9 9 8 8 7 6 6 6
14 14 13 12 13 13 13 13 12 13 12 13 13 12 11 10 10 13 13 12 11 12 12 10 10 11 12 12 12 13 13 15 15 14 12 10 11 15 16 13 13 15 15 14 14 14 15 15 16 15 15 14 14 14 13 14 15 16 16 17 16 16 15 15 15 14 13 11 11 10 10 10 10 10 10 10 9 8 8 8 7 7 6 6 7
13 13 13 12 12 12 13 13 13 13 13 13 13 12 10 9 9 12 14 14 13 12 12 12 11 11 12 13 13 14 14 14 15 14 13 10 11 15 15 13 14 16 16 16 16 16 17 17 16 16 15 15 14 14 15 16 17 17 17 17 17 16 16 16 15 14 12 11 11 10 10 10 9 10 10 9 8 7 7 7 7 7 7 8 8
13 13 12 12 12 12 12 13 13 13 13 13 12 11 10 9 9 11 14 14 14 13 13 13 11 11 12 13 14 15 14 14 14 15 13 10 11 13 13 12 13 15 17 18 18 18 17 16 15 15 16 16 15 14 15 16 18 18 17 17 17 17 17 16 15 13 12 11 11 10 10 9 9 9 9 9 7 7 7 7 8 8 9 9 9
13 12 11 12 12 11 12 12 13 13 13 13 12 11 10 9 9 11 12 13 15 15 14 13 11 11 11 11 14 15 15 15 14 14 13 11 11 11 12 12 13 16 18 19 19 18 17 15 14 15 16 17 16 15 15 17 18 19 19 18 18 18 17 15 13 13 12 11 10 9 9 9 9 9 9 8 7 7 8 8 9 9 10 10 10
13 12 11 11 11 11 11 12 12 12 12 12 12 11 10 10 10 11 12 12 14 15 15 14 13 12 11 11 13 14 15 15 14 14 14 13 12 11 12 13 14 16 18 19 19 18 16 15 14 14 15 16 17 17 16 17 18 19 19 18 18 17 16 14 13 12 11 10 9 8 8 9 9 9 8 8 8 9 9 9 9 10 10 11 11
13 12 11 11 11 10 11 12 12 12 12 12 12 11 11 10 11 12 12 13 13 14 14 14 14 13 13 13 13 13 14 15 14 14 15 14 13 13 14 15 16 16 16 17 18 17 16 15 15 15 15 16 17 18 16 16 17 18 18 17 16 16 14 13 12 11 10 9 8 8 9 9 9 9 8 8 9 11 11 10 10 10 12 12 13
13 12 11 11 11 11 11 12 12 12 12 12 12 12 12 11 11 12 13 13 14 13 13 13 14 14 14 14 13 13 14 14 14 14 15 15 14 14 14 14 15 16 15 16 16 16 16 15 16 16 16 16 17 18 17 16 16 16 16 16 15 14 13 12 11 10 9 9 9 9 10 9 9 9 9 10 11 12 12 12 12 12 13 14 14
13 12 12 11 11 11 11 12 12 13 13 13 13 12 12 12 12 13 13 14 15 15 15 15 16 16 15 15 15 14 14 15 14 14 15 15 14 14 13 13 13 15 16 16 15 15 15 15 17 17 16 16 17 17 16 16 15 15 15 14 14 13 12 11 10 10 9 9 9 10 10 9 9 10 11 12 13 13 13 14 14 14 15 15 15
14 13 12 12 11 11 11 12 12 13 13 13 13 13 13 12 13 14 14 15 15 16 16 16 16 16 16 16 15 15 14 14 14 14 14 14 13 13 12 12 12 13 15 16 16 16 15 15 18 20 19 18 18 17 17 16 16 15 15 15 14 13 12 11 10 10 10 10 10 10 10 10 11 12 14 14 14 14 14 15 15 15 15 15 15
14 13 12 12 12 12 12 12 12 13 13 13 13 13 13 13 13 14 15 15 16 16 17 17 17 17 16 16 15 15 14 14 14 14 14 13 13 12 11 11 11 12 13 14 15 16 16 17 19 21 21 21 20 19 19 18 18 17 17 16 15 14 13 12 11 11 11 11 11 11 12 13 14 15 15 14 15 15 15 15 15 15 15 15 15
14 13 12 12 12 12 11 12 12 13 13 13 13 13 13 13 14 14 15 15 16 17 17 17 17 17 16 15 15 15 14 14 14 14 13 13 12 11 11 11 11 10 11 13 14 15 16 17 18 20 21 22 22 21 21 20 19 19 19 18 17 16 14 13 12 12 12 13 14 15 15 16 16 16 16 15 15 15 15 15 15 15 15 15 15
13 13 12 12 12 12 12 12 12 13 13 13 14 14 14 14 14 14 15 15 16 16 17 17 17 17 16 15 15 15 14 14 13 13 13 12 12 11 11 11 10 10 11 12 13 15 16 16 16 18 20 21 22 22 22 21 21 20 20 19 18 17 15 15 14 15 16 17 18 18 18 18 17 17 16 16 15 15 15 15 15 14 14 14 14
13 13 13 12 12 12 12 12 12 13 13 14 14 14 14 15 15 15 14 15 15 16 17 17 17 17 16 16 15 15 14 14 13 13 13 12 12 12 12 11 11 11 12 13 13 14 15 15 16 17 19 20 21 22 22 22 22 21 21 20 19 18 18 17 18 18 19 20 20 20 19 19 18 17 16 16 15 15 14 14 14 14 14 14 14
13 13 13 12 12 12 12 13 12 12 13 14 14 14 15 15 15 15 15 15 15 16 16 16 17 16 16 16 15 15 15 14 13 13 13 13 13 13 13 13 13 13 13 14 14 15 15 15 15 16 18 19 20 21 22 22 22 22 22 22 21 21 21 20 20 21 21 21 20 20 19 18 17 17 16 16 15 15 14 14 14 14 14 14 15
13 13 13 13 12 12 12 13 13 12 13 14 15 15 15 15 16 15 15 15 15 16 16 16 16 16 16 15 15 15 15 14 14 15 15 15 16 16 15 15 15 15 15 15 15 15 15 15 15 15 16 17 19 20 21 21 21 21 22 21 21 21 21 21 21 21 22 22 21 20 18 17 16 16 16 15 15 14 14 14 14 15 15 15 15
13 13 13 13 13 12 12 12 13 12 12 13 14 15 15 15 16 15 15 15 16 16 16 16 16 16 16 15 15 15 15 15 15 16 17 17 17 18 17 17 16 16 16 16 16 16 15 15 15 15 15 16 18 19 20 20 20 20 20 20 20 20 20 20 20 21 21 21 20 19 17 16 15 15 14 14 14 14 14 14 15 15 15 15 15
13 13 13 13 14 13 12 12 12 12 12 12 13 15 15 15 15 16 15 15 16 16 16 16 16 15 15 15 15 15 15 15 16 16 17 17 18 18 18 18 17 17 17 16 16 16 15 15 15 14 14 15 17 18 19 19 19 19 19 19 19 19 19 20 20 21 21 20 19 17 16 15 14 13 13 13 12 13 13 14 14 14 15 14 14
14 14 14 14 14 13 13 12 12 13 12 11 12 14 15 16 16 15 15 16 16 16 16 16 16 15 15 15 15 15 15 15 15 16 16 16 17 18 18 19 18 17 17 16 16 15 15 14 14 14 14 14 16 17 18 19 19 19 18 18 18 18 19 19 20 20 19 18 17 16 15 14 13 12 11 11 11 12 12 13 14 14 14 14 13
14 14 14 14 14 14 13 12 12 13 12 11 11 13 14 15 15 15 15 15 15 15 15 16 15 15 15 14 14 14 14 14 15 15 15 16 16 17 17 18 19 18 17 16 15 15 14 14 14 14 13 14 15 16 17 18 19 19 18 18 18 18 18 18 18 18 18 17 15 14 13 12 11 10 10 10 10 11 11 12 13 13 13 12 12
14 14 14 14 15 15 14 13 12 12 13 12 11 12 13 15 15 15 15 15 15 15 15 15 15 14 14 14 13 13 13 13 14 13 14 14 15 16 16 17 18 18 18 17 16 15 15 15 14 14 13 13 14 15 16 18 18 19 18 18 18 18 18 17 17 17 16 15 14 13 12 11 10 9 8 9 9 10 10 11 11 11 11 10 10
14 14 15 15 15 16 15 13 13 13 13 13 12 12 13 14 15 15 14 14 14 14 14 14 14 14 13 13 13 12 12 12 12 12 12 13 14 15 15 16 16 17 17 17 16 16 15 15 15 14 14 14 14 15 16 17 17 18 18 18 17 17 17 16 16 15 15 14 13 11 10 9 8 8 7 7 8 9 9 10 10 10 9 9 9
13 14 15 15 16 16 16 14 13 13 13 13 13 13 13 14 15 15 14 13 13 13 12 13 13 13 12 12 12 11 11 11 11 11 11 11 12 13 14 15 15 15 15 15 16 16 16 15 15 15 15 15 15 15 15 16 16 16 16 17 16 16 15 15 14 14 13 13 12 11 9 8 8 7 7 7 7 8 8 9 8 8 9 9 10
13 14 14 15 16 17 16 14 14 14 14 14 13 13 14 14 15 15 14 13 12 12 11 11 11 11 11 11 11 11 11 11 11 10 10 10 11 12 13 13 13 13 13 14 14 15 15 15 15 15 15 15 15 15 15 15 14 14 15 15 15 15 14 13 13 12 12 12 11 10 9 8 8 7 7 6 7 7 7 8 8 9 10 11 11
12 13 14 15 16 17 17 15 14 14 14 14 14 14 14 15 15 15 15 14 12 11 11 10 10 10 9 9 9 10 10 10 10 10 10 9 10 11 12 12 12 13 12 12 13 13 13 14 14 13 14 14 14 14 14 14 13 13 13 13 13 14 14 13 12 11 11 11 10 9 9 8 8 7 7 6 6 6 7 7 8 10 11 12 12
12 12 13 15 15 17 17 16 15 14 14 15 15 15 15 15 16 16 15 14 13 12 10 10 9 9 8 8 8 9 9 9 9 9 9 9 9 9 10 11 12 12 12 12 12 12 12 12 12 12 12 12 12 13 13 13 12 12 11 11 12 12 13 12 11 11 10 10 10 9 9 9 8 8 7 6 6 7 7 8 9 10 11 12 12
12 11 12 14 16 16 17 17 16 15 15 15 15 15 16 16 16 16 16 15 14 12 10 9 9 8 7 7 7 8 8 8 7 8 8 8 8 9 9 10 11 12 12 12 12 12 11 11 11 10 10 10 10 11 12 11 11 11 11 11 11 11 11 11 11 10 10 9 9 10 10 10 9 8 7 7 7 7 8 9 10 11 11 12 12
13 12 12 14 17 18 18 18 17 16 16 17 17 17 16 16 17 17 16 15 14 13 11 10 9 8 7 7 7 7 7 7 6 6 7 8 8 8 8 9 10 11 12 13 12 12 11 11 10 10 9 9 8 9 10 10 9 9 9 10 10 9 10 10 10 9 9 9 9 10 10 11 10 9 8 8 7 8 9 10 10 11 11 12 13
14 14 13 14 17 19 20 19 18 18 18 18 18 17 17 16 16 16 16 15 14 13 12 10 9 8 7 7 7 7 7 7 6 6 6 7 7 8 8 9 9 10 11 12 12 11 11 10 10 9 9 8 8 8 9 9 8 8 8 8 9 9 9 9 9 8 7 7 8 9 10 11 11 10 10 9 8 9 10 10 11 11 12 12 12
15 15 14 14 17 20 21 21 20 19 19 18 18 17 16 15 15 15 15 15 14 13 12 11 10 9 8 8 8 8 8 7 6 6 5 6 7 8 8 9 9 10 10 11 11 10 10 9 9 9 8 8 8 8 8 8 8 7 7 7 8 9 9 9 9 8 8 7 7 8 9 11 11 11 10 10 9 9 10 10 10 11 11 11 11
15 14 14 14 16 20 23 23 21 20 19 18 17 16 15 14 15 14 14 14 14 13 13 12 11 10 9 8 8 8 8 7 7 6 5 5 6 8 9 9 9 10 11 11 11 10 9 9 8 8 8 8 8 8 8 8 7 7 7 7 8 9 9 9 9 9 8 8 8 9 10 10 11 12 11 10 10 9 9 10 10 10 10 11 11
15 15 14 14 16 20 24 24 23 21 19 17 16 15 15 14 14 14 14 15 15 14 14 13 12 11 9 9 9 9 8 7 7 6 6 6 6 7 9 9 9 10 11 11 11 10 9 8 7 6 7 7 7 7 7 6 6 7 7 7 7 8 9 8 8 8 8 8 9 10 11 11 12 12 11 10 10 9 9 9 9 9 9 10 10
16 16 16 16 16 19 24 25 24 22 19 17 16 15 15 15 15 15 16 16 16 15 14 13 12 11 10 10 9 9 8 7 7 6 6 6 7 8 8 9 9 9 10 10 11 10 9 7 6 5 5 6 6 6 6 6 6 6 6 7 7 7 8 8 8 8 8 8 9 11 12 12 12 12 11 10 10 9 10 10 9 9 9 10 10
16 17 17 16 16 17 21 25 25 23 20 18 17 17 17 17 17 17 17 16 15 14 13 12 11 11 11 11 10 10 9 7 7 6 6 6 7 8 8 9 9 9 9 9 10 10 10 8 7 6 5 5 5 6 6 6 6 6 6 6 7 7 7 7 8 8 8 8 9 11 12 13 13 13 12 11 10 10 10 10 10 9 9 10 11
15 17 16 15 15 15 19 24 25 24 22 19 18 18 18 19 19 19 17 15 13 12 12 11 11 11 11 12 11 11 10 8 8 7 6 7 7 7 8 8 9 9 9 9 9 9 9 8 7 6 5 5 5 5 5 5 6 6 7 7 7 7 7 8 8 8 8 8 9 11 12 13 13 13 13 12 11 11 11 11 10 9 9 10 12
14 16 17 16 15 15 17 22 25 24 23 20 19 20 20 20 20 19 17 14 13 13 12 12 12 12 12 12 12 12 11 10 8 8 7 7 7 7 7 7 8 8 9 8 8 7 7 7 7 7 6 5 5 5 5 5 5 6 8 8 8 8 8 8 8 8 8 9 10 11 12 13 14 14 13 12 12 12 11 11 10 9 9 11 11
13 15 17 17 17 15 16 21 25 25 23 22 21 21 21 21 20 18 16 15 14 14 14 14 13 13 13 13 13 12 12 10 9 9 8 8 7 7 7 7 7 8 8 8 7 7 6 6 6 6 5 5 5 5 4 5 5 6 8 9 9 9 9 9 9 9 9 9 10 11 11 13 13 14 13 13 12 12 11 10 9 9 9 10 10
13 14 16 17 16 15 15 19 25 27 25 23 22 22 21 21 19 18 16 15 15 15 15 15 15 15 14 13 13 13 12 11 10 9 8 8 7 7 7 7 7 7 7 6 6 6 5 5 5 5 5 4 4 5 5 5 5 6 8 9 10 10 9 9 9 9 9 9 10 10 11 12 13 13 13 13 12 11 11 10 9 9 9 9 9
13 13 13 15 16 15 15 19 25 28 27 25 23 22 21 20 19 17 17 16 16 16 16 15 15 15 14 14 14 13 13 12 10 9 8 7 6 6 6 6 6 7 7 6 5 4 4 4 4 4 4 4 3 4 5 5 5 6 7 9 10 10 10 9 9 8 8 9 9 10 10 11 12 13 13 12 12 11 10 9 9 9 8 7 8
Wind_Direction
101 102 102 101 98 95 96 102 105 104 99 91 93 99 94 89 88 89 93 95 96 98 102 106 107 110 111 112 113 115 118 122 125 127 126 124 124 125 128 131 135 141 146 149 140 130 124 121 117 126 133 138 172 180 167 159 169 159 151 133 128 136 122 122 122 126 123 119 125 122 121 122 121 114 106 102 103 102 99 99 102 104 104 102 100
100 101 104 104 103 107 111 113 108 102 98 100 112 108 100 97 98 101 102 101 101 103 105 105 106 108 110 112 114 116 118 119 121 123 123 122 122 125 131 136 140 141 139 130 115 108 102 94 96 107 117 129 173 180 171 159 168 163 158 138 119 142 127 122 125 126 113 109 118 122 123 123 119 112 108 107 108 106 104 105 106 107 105 101 99
101 103 105 104 105 111 115 114 108 101 104 119 123 107 102 103 105 108 106 106 106 107 106 105 106 108 111 113 114 115 114 115 119 122 121 121 123 130 138 141 140 131 120 107 92 86 86 85 92 100 107 128 167 173 172 163 159 160 166 149 125 151 135 124 127 119 108 113 120 122 122 122 118 113 111 112 112 110 108 108 108 107 104 100 99
100 102 102 102 104 107 108 110 110 111 121 128 114 97 98 103 107 110 109 111 111 110 107 106 106 107 110 111 114 114 115 120 124 124 124 126 132 140 145 141 130 117 113 105 93 87 86 86 95 100 102 123 150 156 170 167 155 160 171 155 134 150 141 127 128 128 125 120 113 114 121 124 120 115 113 114 114 111 110 110 108 106 103 100 101
100 101 101 101 103 102 102 105 109 116 120 110 96 90 96 103 108 111 112 113 111 109 107 107 109 110 111 114 118 118 123 129 128 128 130 135 142 146 147 133 116 115 117 108 99 92 85 83 91 100 101 114 130 142 163 163 153 155 168 159 138 139 141 130 131 135 129 115 107 108 113 117 116 116 118 118 116 113 113 113 110 107 102 102 104
100 101 101 101 101 99 99 100 103 106 101 92 88 91 98 104 108 111 113 111 109 109 110 113 115 114 114 116 118 119 127 130 128 130 133 137 145 147 137 118 109 123 124 109 100 91 86 82 79 91 101 111 125 138 147 149 148 147 163 160 135 133 141 131 130 131 127 120 111 104 102 107 112 116 120 119 117 116 115 115 112 110 106 104 104
101 100 101 100 98 99 99 98 97 96 93 91 91 96 101 105 110 112 111 111 111 112 116 120 119 115 113 116 116 118 126 127 125 128 130 129 136 137 123 114 112 132 127 108 99 94 88 79 73 84 93 105 121 129 132 137 133 137 160 155 132 133 140 134 131 130 134 132 119 108 103 108 113 116 120 120 118 116 115 115 112 109 106 104 104
102 100 102 101 98 99 99 98 97 95 95 95 97 100 104 107 110 111 111 112 113 115 121 123 118 115 115 117 116 117 120 122 121 120 122 123 132 140 134 127 127 143 130 108 100 98 91 79 80 91 93 100 112 115 119 126 124 140 160 144 130 134 135 134 131 130 134 130 123 119 116 119 122 122 124 123 119 117 117 115 110 107 104 104 102
103 101 103 102 99 100 100 99 98 97 97 98 100 102 103 106 106 108 109 111 113 117 124 124 119 116 116 115 113 115 115 113 111 113 118 125 134 136 126 118 125 133 118 103 95 92 89 85 87 87 91 96 102 106 108 117 128 151 152 132 129 131 130 129 128 127 122 115 113 114 112 114 120 123 124 122 119 118 117 112 107 105 103 102 97
103 102 101 101 100 99 99 99 98 98 99 100 100 100 100 101 102 104 106 109 113 116 120 119 114 111 111 110 109 110 110 103 99 107 116 123 125 119 111 110 116 112 103 98 90 83 82 88 89 86 87 90 91 97 106 116 129 141 133 125 128 128 128 128 126 123 113 104 102 102 101 104 113 119 120 119 118 116 112 106 105 102 99 96 93
102 99 98 98 98 97 96 97 98 99 100 101 100 98 97 97 99 102 106 110 114 114 114 110 106 105 107 107 107 107 107 100 95 101 110 116 114 108 105 104 104 98 95 91 85 81 83 89 91 88 85 84 83 88 98 110 118 122 120 122 125 126 129 129 127 121 114 107 103 102 103 106 112 115 115 116 115 111 107 102 101 97 93 92 91
101 98 98 97 96 95 96 98 99 101 101 100 98 95 95 95 98 101 105 108 110 110 109 105 100 100 102 103 104 103 101 100 100 101 104 105 103 101 96 94 96 94 89 84 83 86 87 86 86 86 82 81 83 87 93 101 109 115 117 120 123 126 127 127 126 122 118 113 109 107 105 107 109 111 112 112 109 106 103 100 96 93 91 89 90
101 99 100 99 97 96 98 100 101 102 101 98 96 94 93 94 98 101 104 104 104 104 104 102 95 94 95 97 101 100 98 99 99 99 99 98 99 98 93 95 102 97 91 88 91 92 87 83 82 82 81 81 86 91 93 99 107 113 116 119 121 124 125 126 126 123 120 116 113 109 106 107 109 111 110 108 106 103 100 97 94 92 92 91 92
100 99 99 98 97 97 100 101 101 101 99 97 95 94 93 93 98 103 105 105 103 101 101 98 91 90 94 97 98 96 94 94 96 98 100 97 97 95 92 96 98 96 95 94 94 90 85 82 80 78 79 83 88 94 98 104 109 113 117 118 119 121 124 126 126 125 122 119 115 110 108 110 112 112 109 106 102 100 98 96 94 93 94 95 98
97 97 97 95 95 97 100 101 100 100 99 97 95 95 95 95 99 102 104 104 101 97 97 94 90 92 95 98 93 90 93 94 97 100 99 95 89 88 90 91 90 95 97 93 87 83 79 79 81 82 83 85 88 94 101 107 110 112 114 116 118 120 123 126 127 126 122 119 114 111 110 112 113 111 107 103 100 99 97 94 92 93 96 99 102
97 95 95 94 94 96 99 99 99 99 99 99 98 98 97 96 96 96 98 100 97 95 94 93 93 92 93 98 96 95 98 97 95 97 99 98 90 91 95 93 92 95 94 89 82 78 77 78 83 87 87 87 89 95 104 111 112 111 113 115 118 122 125 127 126 123 118 116 112 112 111 112 110 106 103 100 99 97 93 91 92 95 99 100 102
99 97 95 94 94 95 97 98 98 99 100 101 100 100 98 95 91 90 94 98 98 98 97 94 91 86 86 96 100 100 100 99 99 103 109 110 103 100 97 92 92 90 89 88 82 78 77 78 80 83 89 94 96 97 104 113 113 112 113 116 121 126 127 125 121 117 114 112 111 110 109 108 106 103 100 98 95 90 88 93 98 102 103 102 102
104 101 98 95 94 96 98 99 99 99 100 101 100 100 99 96 92 90 91 95 99 101 103 101 98 95 93 94 94 98 103 106 109 111 110 106 99 91 85 82 81 79 82 85 83 80 79 79 80 82 90 98 101 101 105 112 113 112 114 119 125 127 124 120 116 113 112 110 110 108 106 105 103 100 96 92 89 88 90 95 100 103 103 103 104
108 106 103 101 99 99 100 100 101 102 102 101 100 99 99 98 94 92 91 91 93 98 102 104 106 105 101 96 93 95 101 105 105 103 100 96 89 81 78 79 80 78 77 80 82 83 82 83 86 85 87 91 95 100 106 112 113 112 116 121 124 123 120 118 115 113 111 109 107 105 102 100 96 94 90 88 90 94 98 101 102 102 103 104 105
112 111 109 108 105 104 103 102 103 103 103 102 101 100 100 99 97 95 92 90 88 90 94 95 97 98 96 96 96 93 94 95 92 90 89 87 84 79 78 80 85 87 83 79 79 81 81 83 86 84 81 82 85 92 99 107 112 115 118 120 121 121 119 118 116 113 110 109 107 102 99 96 94 92 90 93 97 100 102 103 102 103 104 103 103
116 115 113 112 110 109 107 105 104 104 104 104 104 103 103 102 101 99 95 92 89 89 89 89 90 90 91 93 93 91 89 88 85 85 84 83 82 80 77 78 85 91 91 88 85 83 82 85 88 87 83 80 81 87 94 102 111 116 119 120 121 121 121 120 116 112 109 108 104 100 98 97 97 97 97 101 103 103 104 104 103 103 103 102 101
119 119 118 117 116 114 111 108 106 106 107 107 107 106 106 106 105 102 98 96 95 93 93 93 92 91 91 92 93 92 90 89 87 85 83 83 82 80 76 76 81 89 94 97 98 97 95 95 94 94 93 88 87 94 100 106 113 118 120 120 121 121 119 117 113 110 107 103 100 97 97 98 101 102 103 105 105 106 105 104 104 102 101 101 101
122 122 122 122 120 117 115 112 109 109 109 108 108 109 109 109 108 105 103 102 101 100 99 98 97 95 94 94 95 95 94 93 91 88 87 85 84 81 77 75 79 85 91 93 97 98 96 92 90 90 93 94 96 101 106 110 114 117 117 116 116 114 113 111 108 105 101 98 96 97 100 103 105 106 107 107 107 106 105 103 102 101 100 101 101
125 124 124 124 122 119 118 115 113 113 112 111 110 111 113 113 111 107 107 106 105 104 103 102 101 100 99 98 97 97 96 94 93 93 93 92 90 87 84 82 83 86 88 86 84 84 81 80 81 82 86 89 92 95 99 104 108 110 112 112 111 109 107 105 103 100 98 98 99 101 103 105 106 107 108 107 106 104 102 101 100 99 100 101 101
128 127 128 127 124 122 121 118 117 117 115 113 112 114 116 115 113 111 110 108 107 106 105 104 103 103 103 102 101 100 98 97 97 97 98 98 97 95 94 93 95 97 94 89 86 83 80 79 79 79 80 82 84 86 90 95 99 102 105 107 106 105 104 102 101 101 101 102 103 104 105 105 106 107 106 105 102 100 98 98 97 97 99 100 101
132 132 131 130 127 125 124 122 121 120 118 116 115 118 119 118 116 114 113 109 107 106 105 105 104 105 105 105 104 103 102 100 97 96 96 97 98 98 99 101 103 104 101 98 96 92 88 86 84 82 80 81 83 85 87 90 93 97 99 101 102 103 103 103 104 104 104 104 104 105 106 107 107 106 105 102 99 97 94 93 93 95 97 99 99
138 137 135 133 131 129 128 125 124 123 121 118 118 120 122 120 119 117 113 110 109 107 106 106 106 106 106 106 104 102 100 98 94 92 93 94 96 98 100 101 103 105 106 105 104 100 95 93 92 88 86 86 87 88 89 90 92 94 96 99 101 103 104 105 106 106 106 105 105 106 107 107 107 106 103 99 96 93 90 88 90 92 93 95 95
143 142 140 139 137 135 132 130 128 126 123 121 121 122 125 124 121 118 114 111 110 108 107 107 107 107 106 105 102 100 98 96 94 93 94 94 95 96 98 99 101 103 107 110 110 107 101 99 99 97 94 92 92 91 91 92 92 93 95 98 100 103 105 106 107 107 107 107 108 108 108 107 106 104 100 97 94 91 87 85 86 88 89 91 91
148 148 146 145 142 140 136 135 132 128 126 124 123 124 126 127 124 120 116 114 112 109 109 108 108 108 107 105 102 100 98 97 96 96 96 96 96 95 96 98 100 104 108 113 115 112 107 103 104 103 99 96 95 95 94 94 94 94 96 98 101 103 105 107 109 109 109 109 109 109 108 105 103 100 98 95 93 89 86 84 84 86 87 88 87
154 153 152 150 147 144 141 140 137 132 129 127 126 126 128 129 127 124 120 117 113 110 108 107 108 108 107 105 102 100 98 98 98 97 97 97 96 95 95 96 98 102 107 113 116 116 112 108 107 106 103 100 98 98 98 98 98 98 98 100 102 104 107 109 110 109 109 109 108 108 106 104 102 99 97 94 90 87 85 84 85 86 86 85 83
160 158 157 155 152 149 146 144 141 136 132 131 130 128 130 132 130 128 125 121 115 110 107 106 107 107 106 105 103 100 99 99 98 97 96 95 94 94 93 94 95 98 103 109 113 116 116 113 110 108 106 104 103 103 103 104 103 103 102 103 104 107 109 110 111 110 109 108 107 107 106 105 104 100 96 92 88 85 84 85 86 86 85 83 81
164 163 161 158 156 155 150 147 146 141 136 134 134 133 134 135 135 132 129 125 118 112 108 106 105 106 106 106 104 102 100 99 98 97 96 96 94 93 92 93 94 95 99 104 110 114 116 115 113 109 107 107 107 109 110 111 110 110 109 109 109 111 112 112 112 111 110 108 107 107 107 106 104 101 96 91 86 83 83 84 85 85 84 83 82
168 168 165 161 161 160 155 151 150 145 140 139 139 139 138 138 139 138 135 130 123 117 111 106 104 104 104 106 106 105 104 102 100 99 98 96 95 93 92 93 94 95 97 101 106 110 113 115 114 111 109 108 110 113 115 116 116 116 116 116 116 117 118 117 116 114 111 109 108 108 109 107 105 101 96 92 88 83 82 84 85 85 85 86 86
172 173 170 166 165 163 159 155 153 150 146 143 143 145 144 144 144 144 141 134 127 121 114 108 104 102 102 105 107 108 108 107 104 101 99 97 95 93 93 95 96 97 99 101 105 108 112 114 115 114 112 111 113 116 118 119 120 121 121 121 122 122 122 121 119 116 113 110 109 109 108 107 104 100 96 93 90 86 85 85 86 88 91 91 87
173 176 176 170 167 166 163 160 156 153 151 148 148 150 151 150 149 150 147 140 133 126 119 112 106 103 102 103 107 110 112 111 109 106 103 100 97 96 96 97 100 101 102 104 105 108 110 112 113 114 114 115 116 117 118 118 120 122 123 124 124 125 124 123 120 117 113 110 108 107 106 105 102 99 96 93 90 87 87 88 92 95 94 88 82
175 176 178 175 170 168 167 163 159 157 155 152 153 154 155 155 154 154 153 148 141 134 126 118 111 107 104 104 106 111 115 116 116 114 111 107 101 99 99 101 104 106 107 108 108 107 108 109 111 113 114 116 117 117 116 116 118 120 121 123 124 124 124 122 120 115 112 109 106 106 105 104 101 99 97 93 88 87 90 94 94 90 86 83 82
181 177 178 179 175 171 169 165 162 161 159 157 158 158 158 158 158 159 158 156 150 144 136 126 117 111 106 105 107 111 116 120 123 123 121 116 110 106 104 105 108 111 114 114 113 111 110 109 110 112 115 117 119 119 118 117 117 118 119 120 121 122 121 120 117 114 110 107 106 105 104 104 103 103 99 91 83 84 88 88 83 81 81 82 83
188 181 178 181 179 175 172 168 164 164 162 162 162 161 162 163 162 163 162 162 158 152 145 135 126 118 111 108 109 113 118 123 128 130 129 126 120 115 111 110 111 115 118 120 119 117 116 115 115 116 118 120 123 123 121 121 122 121 121 120 120 118 118 118 116 115 112 109 108 107 106 106 107 106 99 89 85 86 84 80 78 79 81 82 83
188 185 180 180 181 178 176 172 167 166 167 167 167 166 167 167 166 165 166 165 163 157 151 144 134 126 119 115 115 118 124 127 131 136 137 135 132 126 120 117 117 120 123 124 122 120 119 119 120 121 122 124 126 125 122 122 123 125 125 124 121 118 117 117 117 117 116 115 114 112 111 110 109 105 96 91 93 91 86 82 80 79 80 81 82
185 188 184 181 182 180 179 177 172 170 171 171 171 171 171 172 168 167 167 167 165 159 154 150 143 136 130 126 125 129 133 135 136 141 144 144 142 138 133 128 127 128 130 130 127 124 122 120 120 120 122 125 129 128 123 120 122 125 128 127 124 122 120 119 117 116 117 118 118 117 115 112 108 100 92 90 90 90 87 84 82 81 81 83 83
184 187 186 183 184 183 181 180 177 176 177 176 175 174 173 173 171 168 168 168 166 162 157 156 152 145 141 136 136 139 142 143 143 147 151 153 152 151 148 143 139 137 137 137 134 130 127 125 124 124 127 130 131 128 122 121 124 128 131 133 132 131 131 128 125 123 122 122 119 117 115 110 104 97 92 88 87 89 89 86 85 85 87 87 87
187 187 187 186 185 184 183 183 183 182 181 180 178 176 173 171 171 171 168 166 166 164 162 161 159 154 149 145 145 148 149 150 151 152 156 160 160 160 161 157 153 150 147 145 141 138 136 135 135 137 139 138 135 130 126 126 128 130 134 138 139 140 140 140 137 135 134 130 125 121 116 110 105 99 95 92 91 92 92 91 91 92 94 93 94
190 187 188 188 186 186 186 186 187 187 185 183 180 176 173 170 172 173 170 167 168 167 167 166 164 159 155 153 152 153 154 153 153 154 158 164 165 166 168 168 165 162 160 157 153 150 148 147 146 146 145 140 135 134 134 134 136 138 139 139 142 143 143 143 142 138 134 131 130 128 121 115 110 106 102 100 98 98 98 99 101 101 102 101 100
191 189 190 191 189 188 189 189 189 189 187 185 181 175 173 174 173 175 175 175 174 173 172 171 168 163 159 158 156 156 157 155 154 155 159 166 168 169 172 173 172 172 172 170 165 164 162 159 155 150 147 140 136 136 138 141 144 147 145 142 143 144 142 141 139 134 130 130 133 131 124 119 115 112 110 109 107 107 110 113 114 114 112 108 104
194 193 193 193 192 191 192 191 190 190 188 184 181 176 176 178 177 179 184 184 181 178 175 172 170 166 161 159 160 161 161 159 156 156 159 165 169 171 174 175 176 179 182 181 177 177 176 174 168 160 153 144 137 138 141 145 151 154 151 145 143 143 140 137 134 130 129 132 133 131 126 122 119 116 116 117 118 121 125 128 129 125 119 111 107
198 198 198 196 195 194 194 194 192 190 188 184 181 181 182 184 184 184 189 190 184 179 176 173 174 172 166 163 163 165 166 165 162 160 162 164 166 169 171 174 177 182 186 186 186 187 186 183 178 172 163 155 147 145 148 152 155 156 153 149 144 142 138 134 131 127 130 133 131 130 129 127 125 123 124 127 130 134 137 140 139 132 123 115 110
201 202 202 199 199 197 196 196 194 191 188 184 182 185 188 191 192 191 192 191 187 182 179 180 181 178 174 169 167 171 172 173 172 168 165 163 162 163 166 171 175 182 188 189 191 190 187 183 179 174 166 165 163 159 159 159 159 154 150 152 150 146 142 137 133 130 132 134 131 132 133 132 131 130 132 135 139 143 147 148 144 135 125 116 110
205 204 204 203 201 200 198 196 195 193 189 184 184 189 193 195 198 198 193 189 189 187 186 190 189 184 182 177 173 175 178 180 181 176 170 166 163 161 161 165 171 180 185 189 192 191 187 183 178 175 169 169 175 177 172 163 160 155 150 153 155 153 148 143 140 137 137 138 136 138 138 136 135 135 136 140 145 149 153 152 146 135 124 116 109
208 207 205 205 204 202 200 197 195 194 191 187 187 194 198 198 201 201 193 187 191 192 190 193 194 188 186 183 178 179 181 185 188 184 179 174 171 166 161 163 169 177 182 186 190 189 185 182 177 176 174 174 179 184 184 171 161 158 155 155 157 156 152 147 146 144 142 142 142 142 142 140 139 138 140 144 149 153 155 153 145 133 123 117 107
210 211 209 208 208 206 204 199 194 193 193 190 191 197 202 202 202 201 194 190 193 197 195 193 194 192 188 185 183 182 183 188 192 192 189 186 181 174 168 169 172 175 179 184 190 186 176 174 174 175 175 179 183 184 185 178 166 161 157 157 159 158 154 150 147 147 147 147 147 147 146 144 142 141 144 148 153 156 157 155 145 134 126 117 106
211 214 212 208 209 208 206 201 195 193 192 192 193 199 205 205 203 199 196 194 195 199 199 194 195 195 189 186 186 186 186 190 196 198 199 199 194 184 176 178 179 179 180 184 192 193 180 171 168 167 169 176 182 182 182 179 170 162 156 157 159 158 155 151 149 149 151 151 150 150 150 148 146 145 148 151 155 158 158 155 146 137 130 116 107
Height
5905 5905 5905 5906 5906 5906 5906 5907 5908 5907 5907 5907 5908 5908 5907 5906 5907 5907 5908 5908 5908 5909 5909 5909 5910 5910 5911 5911 5911 5911 5911 5910 5910 5911 5911 5912 5913 5913 5913 5912 5912 5912 5912 5912 5913 5913 5913 5913 5913 5913 5914 5915 5916 5915 5914 5915 5916 5916 5916 5915 5915 5916 5918 5918 5916 5917 5918 5918 5918 5917 5917 5918 5919 5919 5917 5916 5916 5917 5918 5919 5919 5919 5920 5919 5919
5906 5906 5906 5907 5907 5908 5908 5909 5909 5908 5908 5909 5911 5909 5907 5907 5908 5909 5909 5909 5910 5910 5910 5910 5911 5911 5912 5912 5912 5911 5911 5912 5912 5912 5913 5914 5914 5914 5914 5913 5913 5913 5913 5914 5915 5915 5914 5914 5914 5913 5914 5916 5916 5915 5915 5915 5915 5916 5916 5916 5915 5916 5919 5919 5917 5917 5917 5918 5918 5918 5917 5918 5919 5919 5918 5917 5917 5918 5919 5920 5920 5920 5920 5920 5920
5906 5906 5907 5907 5908 5909 5910 5909 5908 5908 5910 5912 5912 5909 5908 5909 5909 5910 5910 5911 5911 5911 5912 5912 5912 5912 5913 5913 5912 5912 5913 5913 5913 5914 5915 5915 5915 5915 5914 5914 5914 5914 5914 5915 5915 5915 5915 5914 5914 5914 5915 5916 5915 5915 5916 5915 5915 5915 5915 5916 5915 5915 5919 5920 5918 5917 5917 5919 5919 5919 5918 5918 5919 5919 5919 5918 5919 5919 5920 5920 5920 5921 5921 5921 5921
5907 5907 5907 5908 5908 5909 5909 5909 5909 5910 5913 5913 5911 5908 5908 5909 5910 5911 5912 5912 5912 5912 5912 5912 5912 5913 5913 5913 5913 5913 5914 5913 5914 5915 5916 5916 5915 5915 5914 5915 5916 5916 5915 5915 5915 5916 5916 5915 5914 5914 5915 5916 5916 5916 5916 5915 5915 5915 5916 5916 5915 5915 5918 5921 5921 5919 5918 5919 5919 5920 5919 5919 5920 5920 5920 5920 5920 5920 5920 5921 5921 5921 5922 5922 5922
5908 5908 5908 5908 5908 5909 5909 5909 5910 5912 5913 5912 5909 5908 5909 5911 5912 5912 5913 5913 5913 5913 5913 5912 5913 5913 5913 5913 5913 5914 5914 5914 5915 5916 5916 5916 5916 5915 5916 5917 5918 5918 5916 5916 5916 5917 5917 5917 5916 5915 5915 5915 5915 5916 5916 5916 5915 5915 5917 5917 5915 5915 5916 5919 5922 5921 5919 5919 5919 5920 5920 5920 5921 5921 5921 5921 5921 5921 5921 5921 5922 5922 5922 5922 5922
5909 5909 5909 5908 5908 5909 5909 5909 5910 5911 5911 5910 5909 5910 5911 5912 5913 5913 5914 5914 5914 5914 5913 5913 5913 5914 5914 5914 5914 5915 5915 5915 5916 5917 5917 5917 5916 5917 5918 5919 5919 5919 5918 5917 5917 5918 5918 5918 5918 5917 5916 5916 5915 5915 5916 5916 5915 5916 5918 5918 5916 5916 5915 5917 5922 5922 5921 5920 5919 5919 5920 5920 5921 5922 5922 5921 5922 5922 5922 5922 5922 5923 5923 5923 5923
5910 5910 5910 5910 5910 5910 5910 5910 5911 5911 5911 5910 5911 5912 5913 5913 5914 5915 5915 5915 5915 5915 5914 5914 5914 5915 5915 5914 5915 5915 5915 5916 5918 5919 5919 5918 5918 5919 5920 5920 5919 5919 5919 5918 5919 5919 5918 5918 5918 5918 5917 5917 5916 5916 5916 5916 5915 5917 5919 5919 5917 5917 5916 5917 5922 5923 5923 5922 5921 5921 5921 5922 5922 5922 5923 5922 5923 5923 5923 5923 5923 5924 5924 5924 5924
5911 5911 5911 5911 5912 5912 5912 5912 5912 5912 5912 5912 5913 5914 5914 5915 5915 5916 5916 5916 5916 5916 5915 5915 5916 5916 5916 5915 5915 5916 5916 5917 5919 5920 5920 5919 5918 5919 5919 5919 5919 5920 5920 5919 5919 5918 5918 5919 5919 5918 5917 5917 5917 5916 5916 5916 5915 5918 5920 5919 5917 5917 5917 5918 5921 5923 5924 5923 5924 5925 5924 5924 5924 5924 5924 5924 5924 5924 5924 5924 5925 5925 5925 5925 5925
5912 5912 5912 5912 5913 5913 5913 5913 5914 5914 5914 5914 5915 5915 5916 5916 5917 5917 5917 5917 5917 5917 5916 5916 5918 5918 5917 5916 5917 5917 5917 5918 5919 5920 5920 5919 5918 5918 5919 5919 5919 5920 5920 5920 5919 5918 5919 5920 5919 5917 5917 5917 5917 5917 5917 5917 5917 5919 5920 5918 5917 5918 5918 5918 5920 5921 5922 5922 5924 5925 5925 5925 5925 5925 5925 5925 5925 5924 5925 5925 5925 5925 5925 5925 5925
5913 5913 5914 5914 5914 5914 5914 5914 5915 5915 5915 5916 5916 5916 5917 5917 5918 5918 5918 5918 5918 5918 5917 5917 5919 5920 5919 5918 5918 5918 5918 5919 5920 5920 5920 5919 5919 5919 5920 5919 5919 5920 5922 5921 5919 5918 5919 5921 5919 5917 5917 5917 5918 5918 5918 5918 5919 5920 5919 5918 5918 5919 5920 5920 5920 5921 5921 5921 5923 5924 5924 5924 5924 5925 5925 5925 5926 5925 5925 5926 5926 5926 5926 5926 5926
5914 5914 5914 5915 5915 5915 5915 5915 5916 5916 5917 5917 5917 5917 5917 5918 5919 5919 5919 5919 5919 5919 5918 5917 5920 5921 5920 5919 5918 5919 5920 5920 5921 5920 5920 5920 5920 5921 5921 5920 5919 5921 5923 5921 5918 5918 5920 5921 5920 5918 5917 5917 5918 5919 5919 5919 5919 5920 5919 5919 5920 5921 5921 5922 5922 5922 5922 5922 5923 5924 5924 5924 5925 5925 5926 5926 5926 5926 5926 5926 5927 5926 5926 5926 5926
5915 5915 5915 5916 5916 5916 5916 5917 5917 5918 5918 5918 5918 5918 5918 5919 5920 5920 5920 5920 5920 5920 5919 5918 5920 5922 5921 5920 5920 5921 5921 5921 5922 5922 5921 5921 5922 5923 5922 5920 5920 5922 5922 5920 5920 5921 5921 5921 5920 5919 5918 5918 5919 5920 5920 5920 5920 5920 5920 5921 5922 5922 5923 5923 5924 5924 5924 5924 5925 5925 5925 5925 5926 5926 5927 5927 5927 5927 5927 5927 5927 5927 5927 5927 5926
5916 5916 5916 5917 5917 5917 5918 5918 5919 5919 5919 5919 5919 5919 5919 5919 5921 5922 5922 5922 5921 5921 5920 5919 5921 5922 5922 5921 5921 5921 5922 5922 5923 5923 5922 5921 5923 5924 5924 5923 5924 5924 5923 5921 5923 5924 5923 5921 5920 5919 5919 5920 5920 5921 5921 5921 5921 5921 5922 5922 5923 5924 5924 5925 5925 5925 5926 5927 5927 5927 5926 5927 5927 5928 5928 5928 5928 5928 5928 5928 5927 5927 5927 5927 5927
5917 5917 5917 5918 5918 5918 5919 5919 5920 5920 5920 5920 5919 5919 5919 5920 5922 5923 5924 5923 5922 5922 5921 5921 5921 5922 5923 5923 5922 5921 5922 5923 5924 5924 5922 5921 5923 5925 5925 5924 5925 5925 5924 5924 5925 5925 5923 5922 5921 5921 5921 5922 5922 5922 5922 5922 5922 5923 5923 5923 5924 5925 5926 5926 5927 5927 5928 5928 5928 5928 5928 5929 5929 5929 5929 5929 5929 5929 5929 5928 5928 5928 5928 5928 5928
5917 5917 5918 5918 5919 5919 5920 5920 5921 5921 5921 5920 5920 5920 5920 5921 5921 5923 5925 5924 5923 5923 5923 5922 5922 5923 5924 5924 5923 5922 5922 5924 5925 5926 5924 5922 5922 5924 5925 5925 5925 5926 5927 5926 5924 5924 5923 5922 5922 5923 5924 5924 5924 5924 5924 5924 5924 5924 5924 5924 5925 5926 5927 5927 5928 5929 5929 5929 5929 5929 5930 5930 5931 5931 5930 5930 5930 5930 5930 5930 5929 5929 5929 5929 5929
5918 5918 5919 5919 5919 5920 5920 5921 5921 5921 5921 5921 5921 5921 5921 5921 5921 5922 5925 5925 5925 5924 5923 5923 5923 5923 5924 5925 5925 5924 5924 5924 5926 5926 5925 5924 5923 5925 5927 5927 5927 5927 5927 5925 5924 5923 5923 5923 5924 5925 5925 5925 5925 5926 5927 5926 5925 5925 5925 5926 5926 5927 5928 5929 5930 5930 5930 5930 5930 5931 5932 5932 5932 5932 5932 5931 5931 5931 5931 5931 5930 5930 5930 5930 5930
5919 5919 5920 5920 5920 5921 5921 5921 5922 5922 5922 5922 5922 5922 5922 5922 5921 5922 5924 5925 5926 5925 5925 5924 5924 5923 5923 5924 5925 5925 5925 5925 5926 5927 5928 5927 5926 5927 5928 5928 5927 5926 5926 5926 5925 5924 5924 5925 5926 5926 5926 5927 5928 5928 5929 5928 5927 5926 5926 5927 5928 5929 5930 5930 5931 5931 5931 5931 5932 5933 5933 5933 5933 5933 5933 5932 5932 5932 5932 5932 5932 5931 5932 5932 5932
5920 5920 5921 5921 5921 5921 5922 5922 5923 5923 5923 5923 5923 5923 5923 5923 5922 5922 5923 5924 5926 5927 5927 5928 5927 5926 5925 5924 5924 5925 5926 5927 5929 5929 5929 5927 5926 5926 5927 5927 5925 5924 5925 5925 5926 5926 5926 5927 5928 5928 5929 5929 5929 5929 5929 5929 5928 5928 5928 5929 5930 5930 5930 5931 5931 5932 5932 5933 5934 5934 5934 5934 5934 5933 5933 5933 5933 5933 5933 5933 5933 5933 5933 5933 5933
5921 5921 5922 5922 5922 5923 5923 5923 5923 5924 5924 5924 5924 5924 5924 5924 5924 5924 5924 5924 5925 5926 5928 5929 5929 5929 5928 5926 5925 5926 5927 5928 5929 5928 5928 5927 5926 5926 5926 5926 5925 5925 5925 5926 5927 5928 5929 5930 5930 5930 5930 5930 5929 5929 5929 5929 5929 5929 5929 5930 5931 5931 5931 5932 5933 5933 5934 5935 5935 5935 5935 5935 5935 5935 5935 5935 5935 5935 5935 5935 5935 5935 5935 5935 5935
5922 5922 5923 5923 5923 5924 5924 5924 5924 5925 5925 5925 5925 5926 5926 5926 5926 5926 5925 5925 5925 5925 5926 5927 5928 5929 5928 5927 5927 5926 5926 5927 5927 5927 5927 5927 5927 5927 5927 5927 5927 5928 5928 5927 5928 5929 5930 5931 5930 5929 5928 5928 5928 5928 5929 5929 5930 5930 5930 5931 5931 5931 5932 5933 5934 5935 5935 5936 5936 5936 5936 5936 5936 5936 5936 5936 5936 5936 5936 5937 5937 5937 5937 5937 5936
5923 5923 5924 5924 5924 5925 5925 5925 5925 5926 5926 5926 5926 5927 5927 5927 5928 5927 5927 5927 5927 5926 5926 5927 5927 5927 5927 5928 5928 5927 5927 5928 5928 5928 5928 5928 5928 5928 5928 5928 5929 5930 5931 5931 5931 5931 5931 5932 5932 5930 5929 5928 5928 5928 5928 5929 5930 5931 5931 5932 5932 5933 5934 5935 5936 5936 5937 5937 5937 5937 5937 5937 5937 5937 5937 5937 5937 5938 5938 5938 5939 5939 5938 5938 5938
5924 5925 5925 5925 5926 5926 5926 5926 5926 5927 5927 5927 5928 5928 5929 5929 5929 5929 5929 5929 5929 5929 5929 5929 5928 5928 5929 5929 5929 5929 5929 5930 5930 5930 5930 5930 5930 5930 5930 5929 5929 5930 5932 5933 5934 5934 5934 5934 5935 5933 5932 5931 5930 5930 5930 5931 5931 5932 5933 5933 5934 5935 5935 5936 5937 5937 5937 5937 5937 5938 5938 5938 5938 5938 5939 5939 5939 5940 5940 5940 5940 5940 5940 5940 5940
5925 5926 5926 5926 5927 5927 5927 5927 5927 5928 5928 5928 5929 5930 5930 5930 5931 5931 5931 5931 5931 5932 5932 5931 5931 5931 5931 5931 5931 5932 5932 5932 5932 5932 5932 5932 5932 5932 5932 5931 5930 5930 5931 5933 5934 5934 5934 5933 5933 5934 5934 5934 5934 5933 5933 5933 5933 5934 5934 5934 5935 5935 5936 5937 5937 5938 5938 5938 5938 5939 5939 5939 5940 5940 5940 5941 5941 5942 5942 5942 5942 5941 5941 5942 5942
5926 5927 5927 5927 5927 5928 5928 5928 5929 5929 5929 5930 5930 5931 5931 5932 5932 5932 5933 5933 5933 5933 5933 5933 5933 5933 5934 5934 5934 5934 5934 5934 5934 5935 5935 5935 5934 5934 5934 5933 5933 5932 5931 5932 5932 5932 5931 5930 5931 5932 5933 5934 5934 5934 5934 5934 5934 5934 5934 5935 5935 5936 5937 5937 5938 5939 5939 5939 5940 5940 5941 5941 5941 5942 5942 5943 5943 5943 5943 5943 5943 5943 5943 5943 5943
5927 5927 5928 5929 5929 5929 5929 5929 5930 5930 5931 5931 5932 5932 5932 5933 5933 5934 5934 5934 5935 5935 5935 5935 5935 5936 5936 5936 5936 5936 5936 5936 5937 5937 5937 5937 5936 5936 5936 5936 5935 5935 5934 5933 5933 5932 5931 5931 5931 5932 5932 5933 5933 5933 5933 5933 5934 5934 5934 5935 5936 5936 5938 5939 5939 5940 5940 5940 5941 5942 5942 5943 5944 5944 5944 5945 5945 5945 5945 5945 5945 5945 5945 5945 5945
5928 5928 5929 5930 5930 5930 5930 5931 5931 5932 5932 5932 5933 5933 5934 5934 5934 5935 5936 5936 5936 5936 5936 5937 5937 5937 5938 5938 5938 5938 5938 5938 5939 5939 5939 5938 5938 5938 5938 5938 5937 5937 5936 5936 5935 5935 5934 5934 5934 5933 5933 5933 5934 5934 5934 5934 5934 5935 5935 5936 5937 5938 5939 5940 5941 5941 5942 5942 5943 5944 5944 5945 5945 5946 5946 5946 5947 5947 5947 5947 5946 5946 5946 5947 5947
5929 5929 5930 5931 5931 5931 5931 5932 5932 5933 5933 5933 5934 5935 5935 5935 5936 5936 5937 5937 5937 5937 5938 5938 5938 5939 5939 5939 5939 5940 5939 5939 5940 5940 5940 5940 5939 5939 5939 5939 5939 5939 5939 5939 5938 5938 5938 5937 5937 5936 5936 5936 5936 5936 5936 5936 5937 5937 5937 5938 5939 5940 5941 5942 5943 5943 5943 5944 5945 5946 5946 5947 5947 5948 5948 5948 5948 5948 5948 5948 5948 5948 5948 5949 5949
5930 5930 5931 5931 5932 5932 5933 5933 5933 5934 5934 5935 5935 5936 5936 5936 5937 5938 5938 5938 5939 5939 5939 5939 5940 5940 5940 5940 5941 5941 5941 5941 5941 5941 5941 5941 5941 5941 5941 5941 5941 5941 5941 5941 5941 5941 5941 5941 5940 5940 5939 5939 5939 5939 5939 5939 5939 5940 5940 5941 5942 5942 5943 5944 5945 5945 5945 5946 5947 5948 5948 5949 5949 5949 5950 5950 5950 5950 5950 5950 5950 5950 5950 5950 5951
5930 5931 5932 5932 5933 5933 5934 5934 5934 5935 5935 5936 5936 5936 5937 5938 5938 5939 5939 5940 5940 5940 5940 5941 5941 5941 5942 5942 5942 5942 5942 5942 5942 5943 5943 5943 5943 5942 5942 5942 5942 5943 5943 5943 5943 5943 5943 5943 5943 5943 5943 5942 5942 5941 5941 5942 5942 5943 5943 5944 5944 5945 5946 5946 5947 5947 5948 5948 5949 5950 5950 5951 5951 5951 5952 5952 5952 5952 5952 5952 5952 5952 5952 5953 5953
5931 5932 5932 5933 5934 5934 5935 5935 5935 5935 5936 5937 5937 5937 5938 5939 5939 5940 5940 5941 5942 5942 5942 5942 5943 5943 5943 5943 5943 5944 5944 5944 5944 5944 5944 5944 5944 5944 5944 5944 5944 5944 5944 5945 5945 5945 5945 5945 5945 5945 5945 5945 5944 5944 5944 5944 5945 5945 5946 5947 5947 5948 5948 5949 5949 5950 5950 5951 5951 5952 5952 5953 5953 5953 5954 5954 5954 5954 5954 5954 5954 5954 5954 5955 5955
5931 5932 5933 5934 5934 5935 5935 5936 5936 5936 5937 5938 5938 5938 5939 5939 5940 5941 5942 5942 5943 5943 5943 5944 5944 5944 5944 5944 5945 5945 5945 5945 5945 5946 5946 5946 5946 5946 5946 5946 5946 5946 5946 5946 5947 5947 5947 5947 5947 5947 5947 5947 5947 5946 5946 5947 5947 5948 5948 5949 5949 5950 5951 5951 5952 5952 5953 5953 5954 5954 5954 5955 5955 5955 5955 5955 5956 5956 5956 5956 5956 5956 5956 5957 5957
5931 5932 5933 5934 5935 5936 5936 5937 5937 5937 5938 5939 5939 5939 5940 5940 5941 5942 5943 5943 5944 5944 5945 5945 5945 5945 5946 5946 5946 5946 5947 5947 5947 5947 5947 5948 5948 5948 5948 5948 5948 5948 5948 5948 5948 5948 5948 5949 5949 5949 5949 5949 5949 5949 5949 5949 5949 5950 5950 5951 5951 5952 5953 5953 5954 5955 5955 5955 5956 5956 5956 5957 5957 5957 5957 5957 5958 5958 5958 5958 5958 5958 5958 5958 5958
5931 5932 5933 5934 5935 5936 5937 5937 5938 5938 5938 5939 5940 5940 5941 5941 5942 5943 5944 5944 5945 5946 5946 5946 5946 5947 5947 5947 5947 5948 5948 5948 5949 5949 5949 5949 5949 5949 5950 5950 5950 5950 5950 5950 5950 5950 5950 5950 5950 5951 5951 5951 5951 5951 5951 5951 5951 5951 5952 5952 5953 5954 5954 5955 5956 5957 5957 5958 5958 5958 5958 5958 5958 5959 5959 5959 5959 5959 5960 5960 5960 5960 5960 5960 5959
5931 5932 5933 5934 5935 5936 5937 5938 5938 5939 5939 5940 5941 5941 5942 5942 5943 5944 5945 5946 5946 5947 5947 5947 5948 5948 5948 5948 5949 5949 5949 5950 5950 5950 5951 5951 5951 5951 5951 5951 5951 5951 5951 5951 5951 5951 5952 5952 5952 5952 5952 5953 5953 5953 5953 5953 5953 5953 5954 5954 5954 5955 5956 5957 5958 5958 5959 5959 5960 5960 5960 5960 5960 5960 5960 5961 5961 5961 5961 5961 5961 5961 5961 5961 5961
5931 5932 5933 5934 5935 5936 5937 5938 5939 5939 5940 5941 5941 5942 5943 5943 5944 5945 5946 5946 5947 5948 5948 5948 5949 5949 5949 5950 5950 5950 5951 5951 5951 5952 5952 5952 5952 5952 5953 5953 5953 5953 5953 5953 5953 5953 5953 5954 5954 5954 5954 5954 5954 5955 5955 5955 5955 5955 5956 5956 5956 5957 5958 5959 5959 5960 5960 5961 5961 5961 5961 5961 5962 5962 5962 5962 5962 5962 5962 5963 5963 5962 5962 5962 5962
5931 5932 5933 5934 5935 5936 5937 5938 5939 5940 5940 5941 5942 5943 5944 5944 5945 5946 5947 5947 5948 5948 5949 5949 5949 5950 5950 5951 5951 5951 5952 5952 5953 5953 5953 5954 5954 5954 5954 5954 5954 5954 5954 5954 5954 5954 5955 5955 5955 5955 5955 5955 5956 5956 5956 5957 5957 5957 5958 5958 5958 5959 5960 5960 5961 5961 5962 5962 5963 5963 5963 5963 5963 5963 5963 5963 5963 5964 5964 5964 5964 5964 5964 5964 5964
5931 5932 5933 5934 5936 5936 5937 5939 5939 5940 5941 5942 5943 5944 5944 5945 5946 5946 5947 5948 5949 5949 5949 5950 5950 5950 5951 5951 5952 5952 5953 5953 5954 5954 5955 5955 5955 5955 5955 5955 5955 5955 5955 5956 5955 5956 5956 5956 5957 5957 5957 5957 5957 5957 5957 5958 5959 5959 5960 5960 5960 5961 5961 5962 5962 5963 5963 5964 5964 5964 5964 5964 5964 5964 5964 5965 5965 5965 5965 5965 5965 5965 5965 5965 5966
5931 5932 5933 5935 5936 5937 5938 5939 5940 5941 5941 5942 5943 5944 5945 5945 5946 5947 5947 5948 5949 5950 5950 5950 5951 5951 5951 5952 5952 5952 5953 5954 5954 5955 5956 5956 5956 5957 5957 5957 5957 5957 5957 5957 5957 5957 5957 5958 5958 5958 5958 5958 5959 5959 5959 5959 5960 5961 5961 5961 5962 5962 5962 5963 5963 5964 5964 5964 5965 5965 5965 5965 5966 5966 5966 5966 5966 5966 5966 5966 5966 5967 5967 5967 5967
5931 5932 5933 5935 5936 5938 5939 5939 5940 5941 5941 5942 5943 5944 5945 5946 5946 5947 5948 5949 5950 5950 5951 5951 5951 5952 5952 5952 5953 5953 5954 5954 5955 5955 5956 5957 5957 5958 5958 5958 5958 5958 5959 5958 5958 5959 5959 5959 5959 5959 5959 5959 5960 5960 5960 5961 5961 5962 5962 5963 5963 5963 5963 5964 5964 5965 5965 5965 5965 5966 5966 5966 5967 5967 5967 5967 5967 5967 5968 5968 5968 5968 5968 5968 5968
5931 5932 5933 5934 5936 5937 5939 5940 5940 5941 5941 5942 5943 5944 5945 5946 5947 5947 5948 5949 5950 5951 5951 5951 5952 5952 5952 5953 5953 5954 5954 5954 5955 5956 5957 5957 5958 5958 5959 5959 5959 5960 5960 5960 5960 5960 5960 5961 5961 5960 5960 5961 5961 5961 5961 5962 5962 5963 5963 5964 5964 5964 5964 5965 5965 5965 5966 5966 5966 5966 5967 5967 5968 5968 5968 5969 5969 5969 5969 5969 5969 5969 5969 5969 5970
5930 5932 5933 5934 5936 5937 5939 5940 5940 5941 5941 5942 5943 5944 5945 5946 5947 5948 5949 5950 5951 5951 5952 5952 5952 5953 5953 5953 5954 5954 5954 5955 5955 5956 5957 5958 5958 5959 5959 5960 5960 5960 5961 5961 5961 5961 5961 5962 5962 5962 5962 5962 5962 5962 5962 5962 5963 5964 5964 5964 5965 5965 5966 5966 5966 5966 5967 5967 5967 5967 5967 5967 5968 5969 5969 5970 5970 5970 5970 5970 5970 5970 5971 5971 5971
5929 5931 5932 5934 5935 5937 5938 5939 5940 5940 5941 5942 5943 5944 5946 5947 5948 5949 5949 5950 5951 5952 5952 5953 5953 5953 5953 5954 5954 5954 5955 5955 5956 5956 5957 5958 5958 5959 5960 5960 5961 5961 5961 5961 5962 5962 5962 5963 5963 5963 5963 5963 5963 5963 5963 5963 5964 5964 5965 5965 5966 5966 5966 5967 5967 5967 5968 5968 5968 5968 5968 5968 5969 5969 5970 5970 5971 5971 5971 5972 5972 5972 5972 5973 5973
5929 5930 5932 5933 5935 5936 5938 5939 5940 5941 5941 5942 5943 5945 5946 5948 5948 5949 5950 5950 5951 5952 5952 5953 5953 5954 5954 5954 5955 5955 5955 5955 5956 5956 5957 5958 5959 5959 5960 5960 5961 5961 5962 5962 5962 5963 5963 5964 5964 5964 5964 5964 5964 5964 5963 5964 5964 5965 5965 5966 5966 5967 5967 5968 5968 5968 5969 5969 5969 5969 5969 5969 5969 5970 5971 5971 5972 5972 5973 5973 5973 5973 5974 5974 5974
5929 5930 5931 5933 5934 5935 5937 5938 5939 5941 5942 5943 5944 5945 5947 5948 5948 5949 5950 5950 5951 5951 5952 5953 5954 5954 5954 5955 5955 5955 5955 5956 5956 5957 5957 5958 5959 5959 5960 5961 5961 5961 5962 5962 5963 5963 5964 5964 5965 5965 5965 5965 5965 5964 5964 5965 5965 5966 5966 5966 5967 5967 5968 5968 5969 5969 5970 5970 5970 5970 5970 5970 5971 5971 5972 5972 5973 5973 5974 5974 5974 5975 5975 5975 5975
5928 5929 5930 5932 5933 5934 5936 5937 5939 5940 5942 5943 5945 5946 5947 5947 5948 5949 5949 5950 5951 5952 5953 5953 5954 5954 5954 5955 5955 5956 5956 5956 5956 5957 5958 5958 5959 5960 5960 5961 5961 5962 5962 5963 5963 5964 5964 5964 5965 5965 5965 5965 5965 5965 5965 5965 5966 5966 5966 5967 5967 5968 5968 5969 5969 5970 5970 5971 5971 5971 5971 5971 5972 5972 5973 5973 5974 5974 5975 5975 5975 5976 5976 5976 5976
5928 5929 5930 5931 5933 5934 5935 5937 5938 5940 5942 5943 5945 5946 5946 5947 5947 5948 5949 5950 5951 5952 5953 5954 5954 5955 5955 5955 5955 5956 5956 5957 5957 5958 5958 5959 5959 5960 5961 5961 5961 5962 5963 5963 5963 5964 5964 5965 5965 5965 5965 5965 5966 5966 5966 5966 5966 5966 5967 5967 5968 5968 5969 5969 5970 5970 5971 5971 5972 5972 5972 5972 5973 5973 5974 5974 5975 5975 5976 5976 5976 5976 5977 5977 5977
5927 5929 5930 5931 5932 5933 5935 5936 5938 5939 5941 5943 5944 5945 5946 5946 5947 5947 5949 5950 5952 5953 5954 5954 5954 5955 5955 5955 5956 5956 5957 5957 5958 5958 5959 5959 5960 5960 5961 5961 5962 5963 5963 5963 5963 5964 5965 5965 5965 5966 5966 5966 5966 5966 5966 5966 5967 5967 5967 5968 5968 5969 5970 5970 5970 5971 5971 5972 5972 5973 5973 5973 5974 5974 5975 5975 5976 5976 5977 5977 5977 5977 5977 5978 5978
5927 5928 5930 5931 5932 5933 5934 5935 5937 5939 5940 5942 5944 5945 5945 5946 5947 5948 5949 5951 5952 5953 5953 5954 5954 5955 5955 5955 5956 5956 5957 5958 5958 5959 5959 5960 5961 5961 5961 5962 5962 5963 5963 5963 5964 5964 5965 5965 5966 5966 5966 5967 5967 5967 5967 5967 5967 5967 5968 5968 5969 5969 5970 5970 5971 5971 5972 5972 5973 5974 5974 5974 5974 5975 5975 5976 5977 5977 5977 5977 5978 5978 5978 5978 5978
5926 5927 5929 5930 5931 5932 5933 5935 5936 5938 5940 5941 5943 5944 5944 5945 5947 5948 5949 5951 5951 5952 5952 5953 5954 5954 5955 5955 5955 5956 5957 5958 5959 5959 5960 5960 5961 5962 5962 5963 5963 5964 5964 5964 5964 5965 5965 5966 5966 5966 5967 5967 5967 5968 5968 5968 5968 5968 5968 5968 5969 5970 5970 5971 5971 5972 5972 5973 5973 5974 5975 5975 5975 5976 5976 5977 5977 5977 5978 5978 5978 5979 5979 5979 5979
5926 5927 5928 5929 5930 5932 5933 5934 5935 5937 5939 5941 5942 5943 5944 5945 5947 5948 5949 5950 5950 5951 5952 5952 5953 5954 5955 5955 5955 5956 5957 5958 5959 5959 5960 5960 5961 5962 5963 5963 5964 5964 5964 5965 5965 5965 5966 5966 5967 5967 5967 5967 5968 5968 5968 5968 5968 5968 5969 5969 5969 5970 5971 5971 5972 5972 5973 5973 5974 5975 5975 5976 5976 5976 5976 5977 5978 5978 5978 5979 5979 5979 5980 5980 5980
5925 5926 5927 5929 5930 5931 5932 5933 5935 5936 5938 5940 5941 5942 5944 5945 5946 5947 5949 5949 5949 5950 5951 5952 5953 5954 5954 5955 5955 5956 5957 5958 5959 5959 5960 5960 5961 5962 5963 5963 5964 5964 5965 5965 5965 5966 5966 5967 5967 5967 5967 5967 5968 5969 5969 5969 5969 5969 5969 5970 5970 5971 5971 5972 5972 5973 5973 5974 5975 5975 5976 5976 5976 5976 5977 5977 5978 5979 5979 5979 5980 5980 5980 5980 5980